STARLINK-37180

Last updated on Sun Apr 12 2026 00:02:08 GMT+0000 (Coordinated Universal Time)

1 68333U 26059N 26101.50002315 -.01937473 00000+0 -22287-1 0 9998 2 68333 53.1595 198.5847 0001133 85.6095 190.0064 15.64579658 4310
UTC large
Height (km)
Speed (km/s)
/
Latitude / Longitude
Inclination (degrees)
Orbital Period (minutes)
Azimuth
Elevation
Range (km)
Doppler Factor

Next 0 passes for location: London (51.5072 / 0.1276)

Sorry there are no passes over London.
STARLINK-37180